EW6341 Weather Reports


Display with metric or nautical units.
time (UTC)temp
F
wind
direction
speed
MPH
gust
MPH
rain 1hr
in
rain 24hr
in
rain mn
in
humidity
%
barometer
mb
20260507111414 82 115 0.0 0.0 0.00 0.00 0.00 1 1010.3
20260507110814 82 115 0.0 0.0 0.00 0.00 0.00 1 1010.2
20260507110312 82 115 0.0 0.0 0.00 0.00 0.00 1 1010.2
20260507105806 82 115 0.0 0.0 0.00 0.00 0.00 1 1010.2
20260507105537 82 115 0.0 0.0 0.00 0.00 0.00 1 1010.2
20260507104707 82 115 0.0 0.0 0.00 0.00 0.00 1 1010.1
20260507104443 82 115 0.0 0.0 0.00 0.00 0.00 1 1010.1
20260507103614 82 115 0.0 0.0 0.00 0.00 0.00 1 1010.1
20260507103112 82 115 0.0 0.0 0.00 0.00 0.00 1 1010.2
20260507102600 82 115 0.0 0.0 0.00 0.00 0.00 1 1010.1
20260507102236 82 115 0.0 0.0 0.00 0.00 0.00 1 1010.1
20260507101504 82 115 0.0 0.0 0.00 0.00 0.00 1 1010.1
20260507101005 82 115 0.0 0.0 0.00 0.00 0.00 1 1010.2
20260507100458 82 115 0.0 0.0 0.00 0.00 0.00 1 1010.2
20260507095907 82 115 0.0 0.0 0.00 0.00 0.00 1 1010.1
20260507095408 82 115 0.0 0.0 0.00 0.00 0.00 1 1010.1
20260507094910 82 115 0.0 0.0 0.00 0.00 0.00 1 1010.2
20260507094406 82 115 0.0 0.0 0.00 0.00 0.00 1 1010.1
20260507093902 82 115 0.0 0.0 0.00 0.00 0.00 1 1010.1
20260507093401 82 115 0.0 0.0 0.00 0.00 0.00 1 1010.1
20260507092809 82 115 0.0 0.0 0.00 0.00 0.00 1 1010.0
20260507092308 82 115 0.0 0.0 0.00 0.00 0.00 1 1010.0
20260507092024 81 92 0.0 0.0 0.00 0.00 0.00 1 1010.0
20260507091308 84 96 0.0 0.0 0.00 0.00 0.00 1 1010.1
20260507091253 84 98 0.0 0.0 0.00 0.00 0.00 1 1010.0
20260507090253 84 94 0.0 0.0 0.00 0.00 0.00 1 1010.1
20260507085753 84 99 0.0 0.0 0.00 0.00 0.00 1 1010.2
20260507085522 84 101 0.0 0.0 0.00 0.00 0.00 1 1010.3
20260507084749 84 108 0.0 0.0 0.00 0.00 0.00 1 1010.2
20260507084248 84 143 0.0 0.0 0.00 0.00 0.00 1 1010.3
20260507083749 84 103 0.0 0.0 0.00 0.00 0.00 1 1010.4
20260507083250 84 71 0.0 0.0 0.00 0.00 0.00 1 1010.4
20260507083021 84 77 0.0 0.0 0.00 0.00 0.00 1 1010.4
20260507082249 84 104 0.0 0.0 0.00 0.00 0.00 1 1010.4
20260507081749 84 72 0.0 0.0 0.00 0.00 0.00 1 1010.5
20260507081251 84 76 0.0 0.0 0.00 0.00 0.00 1 1010.5
20260507081246 84 101 0.0 0.0 0.00 0.00 0.00 1 1010.6
20260507080238 84 103 0.0 0.0 0.00 0.00 0.00 1 1010.7
20260507075730 84 103 0.0 0.0 0.00 0.00 0.00 1 1010.7
20260507075225 84 63 0.0 0.0 0.00 0.00 0.00 1 1010.7
20260507074730 84 110 0.0 0.0 0.00 0.00 0.00 1 1010.8
20260507074719 84 103 0.0 0.0 0.00 0.00 0.00 1 1010.7
20260507073939 84 94 0.0 0.0 0.00 0.00 0.00 1 1010.8
20260507073201 84 107 0.0 0.0 0.00 0.00 0.00 1 1010.8
20260507072654 84 101 0.0 0.0 0.00 0.00 0.00 1 1010.8
20260507072149 84 104 0.0 0.0 0.00 0.00 0.00 1 1010.9
20260507071643 84 106 0.0 0.0 0.00 0.00 0.00 1 1010.9
20260507071138 84 101 0.0 0.0 0.00 0.00 0.00 1 1010.9
20260507070630 84 85 0.0 0.0 0.00 0.00 0.00 1 1011.0
20260507070125 84 108 0.0 0.0 0.00 0.00 0.00 1 1011.0
20260507065619 84 122 0.0 0.0 0.00 0.00 0.00 1 1011.1
20260507065344 84 98 0.0 0.0 0.00 0.00 0.00 1 1011.2
20260507064608 84 105 0.0 0.0 0.00 0.00 0.00 1 1011.3
20260507064102 84 91 0.0 0.0 0.00 0.00 0.00 1 1011.3
20260507063555 84 106 0.0 0.0 0.00 0.00 0.00 1 1011.4
20260507063049 84 69 0.0 0.0 0.00 0.00 0.00 1 1011.4
20260507062544 84 101 0.0 0.0 0.00 0.00 0.00 1 1011.6
20260507062038 84 95 0.0 0.0 0.00 0.00 0.00 1 1011.7
20260507061532 84 128 0.0 0.0 0.00 0.00 0.00 1 1011.7
20260507061033 84 113 0.0 0.0 0.00 0.00 0.00 1 1011.8
20260507060533 84 87 0.0 0.0 0.00 0.00 0.00 1 1012.0
20260507060033 84 113 0.0 0.0 0.00 0.00 0.00 1 1012.0
20260507055803 84 110 0.0 0.0 0.00 0.00 0.00 1 1012.1
20260507055029 84 97 0.0 0.0 0.00 0.00 0.00 1 1012.2
20260507054529 84 89 0.0 0.0 0.00 0.00 0.00 1 1012.3
20260507054030 84 106 0.0 0.0 0.00 0.00 0.00 1 1012.2
20260507053801 84 110 0.0 0.0 0.00 0.00 0.00 1 1012.3
20260507053027 84 104 0.0 0.0 0.00 0.00 0.00 1 1012.3
20260507052527 84 84 0.0 0.0 0.00 0.00 0.00 1 1012.3
20260507052027 84 102 0.0 0.0 0.00 0.00 0.00 1 1012.5
20260507051526 84 104 0.0 0.0 0.00 0.00 0.00 1 1012.5
20260507051025 84 97 0.0 0.0 0.00 0.00 0.00 1 1012.5
20260507050525 84 103 0.0 0.0 0.00 0.00 0.00 1 1012.6
20260507050027 84 97 0.0 0.0 0.00 0.00 0.00 1 1012.7
20260507045527 84 96 0.0 0.0 0.00 0.00 0.00 1 1012.7
20260507045028 84 94 0.0 0.0 0.00 0.00 0.00 1 1012.6
20260507045022 84 130 0.0 0.0 0.00 0.00 0.00 1 1012.6
20260507044014 84 98 0.0 0.0 0.00 0.00 0.00 1 1012.7
20260507043509 84 108 0.0 0.0 0.00 0.00 0.00 1 1012.7
20260507043002 84 104 0.0 0.0 0.00 0.00 0.00 1 1012.7
20260507042457 84 94 0.0 0.0 0.00 0.00 0.00 1 1012.8
20260507041950 84 94 0.0 0.0 0.00 0.00 0.00 1 1012.9
20260507041444 84 109 0.0 0.0 0.00 0.00 0.00 1 1012.8
20260507040938 84 108 0.0 0.0 0.00 0.00 0.00 1 1012.8
20260507040432 84 107 0.0 0.0 0.00 0.00 0.00 1 1012.7
20260507035925 84 99 0.0 0.0 0.00 0.00 0.00 1 1012.8
20260507035419 84 102 0.0 0.0 0.00 0.00 0.00 1 1012.9
20260507035147 84 83 0.0 0.0 0.00 0.00 0.00 1 1012.8
20260507034411 84 108 0.0 0.0 0.00 0.00 0.00 1 1012.8
20260507033912 84 90 0.0 0.0 0.00 0.00 0.00 1 1012.8
20260507033410 84 91 0.0 0.0 0.00 0.00 0.00 1 1012.8
20260507032912 84 103 0.0 0.0 0.00 0.00 0.00 1 1012.8
20260507032412 84 115 0.0 0.0 0.00 0.00 0.00 1 1012.8
20260507031910 84 95 0.0 0.0 0.00 0.00 0.00 1 1012.7
20260507031411 84 110 0.0 0.0 0.00 0.00 0.00 1 1012.7
20260507030911 84 103 0.0 0.0 0.00 0.00 0.00 1 1012.6
20260507030411 84 96 0.0 0.0 0.00 0.00 0.00 1 1012.6
20260507030406 84 108 0.0 0.0 0.00 0.00 0.00 1 1012.6
20260507030347 84 85 0.0 0.0 0.00 0.00 0.00 1 1012.6
20260507024907 84 103 0.0 0.0 0.00 0.00 0.00 1 1012.5
20260507024408 84 108 0.0 0.0 0.00 0.00 0.00 1 1012.5
20260507023908 84 99 0.0 0.0 0.00 0.00 0.00 1 1012.3
20260507023407 84 99 0.0 0.0 0.00 0.00 0.00 1 1012.3
20260507022907 84 98 0.0 0.0 0.00 0.00 0.00 1 1012.3
20260507022407 84 118 0.0 0.0 0.00 0.00 0.00 1 1012.3
20260507021907 84 83 0.0 0.0 0.00 0.00 0.00 1 1012.3
20260507021408 84 84 0.0 0.0 0.00 0.00 0.00 1 1012.3
20260507020914 84 100 0.0 0.0 0.00 0.00 0.00 1 1012.2
20260507020640 84 81 0.0 0.0 0.00 0.00 0.00 1 1012.2
20260507015907 84 96 0.0 0.0 0.00 0.00 0.00 1 1012.1
20260507015407 84 102 0.0 0.0 0.00 0.00 0.00 1 1012.2
20260507014907 84 86 0.0 0.0 0.00 0.00 0.00 1 1012.1
20260507014639 84 100 0.0 0.0 0.00 0.00 0.00 1 1012.0
20260507014138 84 79 0.0 0.0 0.00 0.00 0.00 1 1011.9
20260507013407 84 98 0.0 0.0 0.00 0.00 0.00 1 1011.8
20260507013139 84 83 0.0 0.0 0.00 0.00 0.00 1 1011.8
20260507012407 84 101 0.0 0.0 0.00 0.00 0.00 1 1011.7
20260507011907 84 97 0.0 0.0 0.00 0.00 0.00 1 1011.6
20260507011407 84 86 0.0 0.0 0.00 0.00 0.00 1 1011.6
20260507010907 84 98 0.0 0.0 0.00 0.00 0.00 1 1011.6
20260507010402 84 113 0.0 0.0 0.00 0.00 0.00 1 1011.5
20260507005901 84 85 0.0 0.0 0.00 0.00 0.00 1 1011.5
20260507005400 84 79 0.0 0.0 0.00 0.00 0.00 1 1011.5
20260507004909 84 117 0.0 0.0 0.00 0.00 0.00 1 1011.4
20260507004359 84 94 0.0 0.0 0.00 0.00 0.00 1 1011.4
20260507003858 84 88 0.0 0.0 0.00 0.00 0.00 1 1011.4
20260507003358 84 65 0.0 0.0 0.00 0.00 0.00 1 1011.4
20260507002857 84 98 0.0 0.0 0.00 0.00 0.00 1 1011.3
20260507002358 85 91 0.0 0.0 0.00 0.00 0.00 1 1011.3
20260507001858 85 86 0.0 0.0 0.00 0.00 0.00 1 1011.3
20260507001356 85 99 0.0 0.0 0.00 0.00 0.00 1 1011.3
20260507000848 85 100 0.0 0.0 0.00 0.00 0.00 1 1011.2
20260507000343 85 68 0.0 0.0 0.00 0.00 0.00 1 1011.2
20260506235837 85 96 0.0 0.0 0.00 0.00 0.00 1 1011.1
20260506235331 85 94 0.0 0.0 0.00 0.00 0.00 1 1011.1
20260506235058 85 101 0.0 0.0 0.00 0.00 0.00 1 1011.0
20260506234319 85 112 0.0 0.0 0.00 0.00 0.00 1 1011.0
20260506234042 85 49 0.0 0.0 0.00 0.00 0.00 1 1011.0
20260506233307 85 97 0.0 0.0 0.00 0.00 0.00 1 1011.0
20260506233034 85 94 0.0 0.0 0.00 0.00 0.00 1 1011.0
20260506232255 85 70 0.0 0.0 0.00 0.00 0.00 1 1010.9
20260506231749 85 103 0.0 0.0 0.00 0.00 0.00 1 1010.8
20260506231242 85 103 0.0 0.0 0.00 0.00 0.00 1 1010.9
20260506230737 85 76 0.0 0.0 0.00 0.00 0.00 1 1010.8
20260506230231 86 74 0.0 0.0 0.00 0.00 0.00 1 1010.8
20260506225725 86 98 0.0 0.0 0.00 0.00 0.00 1 1010.8
20260506225218 86 112 0.0 0.0 0.00 0.00 0.00 1 1010.8
20260506224714 86 108 0.0 0.0 0.00 0.00 0.00 1 1010.7
20260506224207 86 99 0.0 0.0 0.00 0.00 0.00 1 1010.8
20260506223933 86 105 0.0 0.0 0.00 0.00 0.00 1 1010.8
20260506223155 86 103 0.0 0.0 0.00 0.00 0.00 1 1010.8
20260506222648 86 98 0.0 0.0 0.00 0.00 0.00 1 1010.7
20260506222142 87 94 0.0 0.0 0.00 0.00 0.00 1 1010.7
20260506221637 86 72 0.0 0.0 0.00 0.00 0.00 1 1010.7
20260506221130 87 108 0.0 0.0 0.00 0.00 0.00 1 1010.7
20260506220625 87 108 0.0 0.0 0.00 0.00 0.00 1 1010.8
20260506220119 87 114 0.0 0.0 0.00 0.00 0.00 1 1010.8
20260506215611 87 101 0.0 0.0 0.00 0.00 0.00 1 1010.8
20260506215108 87 81 0.0 0.0 0.00 0.00 0.00 1 1010.7
20260506214601 87 129 0.0 0.0 0.00 0.00 0.00 1 1010.8
20260506214056 87 112 0.0 0.0 0.00 0.00 0.00 1 1010.7
20260506213549 87 67 0.0 0.0 0.00 0.00 0.00 1 1010.8
20260506213043 87 117 0.0 0.0 0.00 0.00 0.00 1 1010.8
20260506212537 87 108 0.0 0.0 0.00 0.00 0.00 1 1010.8
20260506212037 87 119 0.0 0.0 0.00 0.00 0.00 1 1010.9
20260506211525 87 128 0.0 0.0 0.00 0.00 0.00 1 1010.8
20260506211019 87 106 0.0 0.0 0.00 0.00 0.00 1 1010.9
20260506210512 87 96 0.0 0.0 0.00 0.00 0.00 1 1011.0
20260506210005 88 121 0.0 0.0 0.00 0.00 0.00 1 1011.0
20260506205459 88 118 0.0 0.0 0.00 0.00 0.00 1 1011.0
20260506204953 87 96 0.0 0.0 0.00 0.00 0.00 1 1011.1
20260506204447 87 91 0.0 0.0 0.00 0.00 0.00 1 1011.1
20260506203940 87 93 0.0 0.0 0.00 0.00 0.00 1 1011.1
20260506203436 87 90 0.0 0.0 0.00 0.00 0.00 1 1011.1
20260506202928 87 99 0.0 0.0 0.00 0.00 0.00 1 1011.1
20260506202422 88 108 0.0 0.0 0.00 0.00 0.00 1 1011.1
20260506201919 87 133 0.0 0.0 0.00 0.00 0.00 1 1011.1
20260506201912 87 107 0.0 0.0 0.00 0.00 0.00 1 1011.2
20260506200904 87 108 0.0 0.0 0.00 0.00 0.00 1 1011.3
20260506200404 87 115 0.0 0.0 0.00 0.00 0.00 1 1011.4
20260506195902 87 121 0.0 0.0 0.00 0.00 0.00 1 1011.5
20260506195400 88 126 0.0 0.0 0.00 0.00 0.00 1 1011.6
20260506194901 87 91 0.0 0.0 0.00 0.00 0.00 1 1011.6
20260506194400 87 132 0.0 0.0 0.00 0.00 0.00 1 1011.7
20260506193900 87 132 0.0 0.0 0.00 0.00 0.00 1 1011.8
20260506193418 88 115 0.0 0.0 0.00 0.00 0.00 1 1012.0
20260506193401 88 98 0.0 0.0 0.00 0.00 0.00 1 1011.9
20260506192630 88 104 0.0 0.0 0.00 0.00 0.00 1 1012.0
20260506191858 88 115 0.0 0.0 0.00 0.00 0.00 1 1012.1
20260506191358 88 107 0.0 0.0 0.00 0.00 0.00 1 1012.1
20260506190854 88 98 0.0 0.0 0.00 0.00 0.00 1 1012.3
20260506190354 88 111 0.0 0.0 0.00 0.00 0.00 1 1012.4
20260506185855 88 100 0.0 0.0 0.00 0.00 0.00 1 1012.5
20260506185354 88 110 0.0 0.0 0.00 0.00 0.00 1 1012.5
20260506184853 88 102 0.0 0.0 0.00 0.00 0.00 1 1012.5
20260506184355 88 123 0.0 0.0 0.00 0.00 0.00 1 1012.5
20260506183856 88 103 0.0 0.0 0.00 0.00 0.00 1 1012.6
20260506183351 88 92 0.0 0.0 0.00 0.00 0.00 1 1012.8
20260506182842 87 101 0.0 0.0 0.00 0.00 0.00 1 1012.8
20260506182342 88 86 0.0 0.0 0.00 0.00 0.00 1 1012.9
20260506181841 88 89 0.0 0.0 0.00 0.00 0.00 1 1012.9
20260506181343 87 115 0.0 0.0 0.00 0.00 0.00 1 1013.0
20260506180841 88 117 0.0 0.0 0.00 0.00 0.00 1 1013.0
20260506180613 87 114 0.0 0.0 0.00 0.00 0.00 1 1013.1
20260506180113 87 109 0.0 0.0 0.00 0.00 0.00 1 1013.1
20260506175342 88 115 0.0 0.0 0.00 0.00 0.00 1 1013.1
20260506174840 88 113 0.0 0.0 0.00 0.00 0.00 1 1013.2
20260506174340 88 97 0.0 0.0 0.00 0.00 0.00 1 1013.2
20260506173840 88 110 0.0 0.0 0.00 0.00 0.00 1 1013.1
20260506173341 87 101 0.0 0.0 0.00 0.00 0.00 1 1013.2
20260506172840 88 118 0.0 0.0 0.00 0.00 0.00 1 1013.2
20260506172341 88 109 0.0 0.0 0.00 0.00 0.00 1 1013.4
20260506171833 88 117 0.0 0.0 0.00 0.00 0.00 1 1013.4
20260506171335 88 96 0.0 0.0 0.00 0.00 0.00 1 1013.5
20260506170834 87 104 0.0 0.0 0.00 0.00 0.00 1 1013.5
20260506170606 87 63 0.0 0.0 0.00 0.00 0.00 1 1013.6
20260506165834 87 110 0.0 0.0 0.00 0.00 0.00 1 1013.6
20260506165606 87 91 0.0 0.0 0.00 0.00 0.00 1 1013.7
20260506164833 87 90 0.0 0.0 0.00 0.00 0.00 1 1013.7
20260506164334 87 105 0.0 0.0 0.00 0.00 0.00 1 1013.7
20260506163834 87 102 0.0 0.0 0.00 0.00 0.00 1 1013.8
20260506163335 87 103 0.0 0.0 0.00 0.00 0.00 1 1013.8
20260506162829 87 115 0.0 0.0 0.00 0.00 0.00 1 1013.7
20260506162331 87 110 0.0 0.0 0.00 0.00 0.00 1 1013.8
20260506162104 87 107 0.0 0.0 0.00 0.00 0.00 1 1013.8
20260506161330 87 115 0.0 0.0 0.00 0.00 0.00 1 1013.9
20260506160830 87 101 0.0 0.0 0.00 0.00 0.00 1 1013.9
20260506160329 87 105 0.0 0.0 0.00 0.00 0.00 1 1014.0
20260506155831 87 110 0.0 0.0 0.00 0.00 0.00 1 1014.0
20260506155329 87 96 0.0 0.0 0.00 0.00 0.00 1 1014.0
20260506154831 87 78 0.0 0.0 0.00 0.00 0.00 1 1014.0
20260506154331 87 113 0.0 0.0 0.00 0.00 0.00 1 1013.9
20260506153829 87 120 0.0 0.0 0.00 0.00 0.00 1 1014.0
20260506153328 87 101 0.0 0.0 0.00 0.00 0.00 1 1014.1
20260506152828 87 74 0.0 0.0 0.00 0.00 0.00 1 1014.0
20260506152329 87 89 0.0 0.0 0.00 0.00 0.00 1 1013.9
20260506151827 87 101 0.0 0.0 0.00 0.00 0.00 1 1013.9
20260506151324 86 58 0.0 0.0 0.00 0.00 0.00 1 1013.9
20260506150825 86 105 0.0 0.0 0.00 0.00 0.00 1 1013.9
20260506150322 86 105 0.0 0.0 0.00 0.00 0.00 1 1013.8
20260506145822 86 112 0.0 0.0 0.00 0.00 0.00 1 1013.8
20260506145321 85 100 0.0 0.0 0.00 0.00 0.00 1 1013.8
20260506144819 85 119 0.0 0.0 0.00 0.00 0.00 1 1013.8
20260506144317 86 96 0.0 0.0 0.00 0.00 0.00 1 1013.8
20260506143816 86 110 0.0 0.0 0.00 0.00 0.00 1 1013.7
20260506143311 86 112 0.0 0.0 0.00 0.00 0.00 1 1013.7
20260506142805 86 107 0.0 0.0 0.00 0.00 0.00 1 1013.6
20260506142529 86 114 0.0 0.0 0.00 0.00 0.00 1 1013.6
20260506141751 86 83 0.0 0.0 0.00 0.00 0.00 1 1013.5
20260506141245 86 99 0.0 0.0 0.00 0.00 0.00 1 1013.4
20260506141010 86 103 0.0 0.0 0.00 0.00 0.00 1 1013.4
20260506140234 86 84 0.0 0.0 0.00 0.00 0.00 1 1013.3
20260506135727 85 118 0.0 0.0 0.00 0.00 0.00 1 1013.2
20260506135222 85 108 0.0 0.0 0.00 0.00 0.00 1 1013.2
20260506134948 85 81 0.0 0.0 0.00 0.00 0.00 1 1013.1
20260506134208 85 93 0.0 0.0 0.00 0.00 0.00 1 1013.1
20260506133704 85 103 0.0 0.0 0.00 0.00 0.00 1 1013.2
20260506133429 85 79 0.0 0.0 0.00 0.00 0.00 1 1013.2
20260506132652 85 103 0.0 0.0 0.00 0.00 0.00 1 1013.2
20260506132418 85 117 0.0 0.0 0.00 0.00 0.00 1 1013.2
20260506131640 85 94 0.0 0.0 0.00 0.00 0.00 1 1013.1
20260506131134 84 104 0.0 0.0 0.00 0.00 0.00 1 1013.1
20260506130629 84 120 0.0 0.0 0.00 0.00 0.00 1 1013.1
20260506130122 84 122 0.0 0.0 0.00 0.00 0.00 1 1013.1
20260506125619 84 101 0.0 0.0 0.00 0.00 0.00 1 1013.0
20260506125121 84 90 0.0 0.0 0.00 0.00 0.00 1 1012.9
20260506124852 84 119 0.0 0.0 0.00 0.00 0.00 1 1012.8
20260506124122 84 97 0.0 0.0 0.00 0.00 0.00 1 1012.8
20260506123617 83 82 0.0 0.0 0.00 0.00 0.00 1 1012.8
20260506123347 83 105 0.0 0.0 0.00 0.00 0.00 1 1012.7
20260506122613 83 88 0.0 0.0 0.00 0.00 0.00 1 1012.7
20260506122112 83 109 0.0 0.0 0.00 0.00 0.00 1 1012.6
20260506121610 83 107 0.0 0.0 0.00 0.00 0.00 1 1012.5
20260506121109 83 108 0.0 0.0 0.00 0.00 0.00 1 1012.6
20260506120609 83 113 0.0 0.0 0.00 0.00 0.00 1 1012.4
20260506120109 0 0.0 0.0 0.00 0.00 0.00 1012.5
20260506115609 0 0.0 0.0 0.00 0.00 0.00 1012.3
20260506115109 0 0.0 0.0 0.00 0.00 0.00 1012.2
20260506114515 0 0.0 0.0 0.00 0.00 0.00 1012.2
20260506114006 82 0.0 0.0 0.00 0.00 0.00 1 1012.1
20260506113505 82 82 0.0 0.0 0.00 0.00 0.00 1 1012.1
20260506113234 82 82 0.0 0.0 0.00 0.00 0.00 1 1012.0
20260506112648 82 82 0.0 0.0 0.00 0.00 0.00 1 1012.0